SP8AQK-13 Weather Reports


time (UTC)temp
F
wind
direction
speed
knots
gust
knots
rain 1hr
in
rain 24hr
in
rain mn
in
humidity
%
barometer
mb
20260504160345 77 0.0 0.0 0.00 0.00 0.00 29 1013.3
20260504150342 78 0.0 0.0 0.00 0.00 0.00 27 1013.6
20260504140340 81 0.0 0.0 0.00 0.00 0.00 24 1014.0
20260504130338 83 0.0 0.0 0.00 0.00 0.00 21 1014.4
20260504110333 82 0.0 0.0 0.00 0.00 0.00 25 1015.7
20260504100331 79 0.0 0.0 0.00 0.00 0.00 29 1016.6
20260504080327 74 0.0 0.0 0.00 0.00 0.00 32 1017.8
20260504070325 71 0.0 0.0 0.00 0.00 0.00 37 1018.0
20260504050320 50 0.0 0.0 0.00 0.00 0.00 82 1019.1
20260504044319 46 0.0 0.0 0.00 0.00 0.00 86 1019.3
20260504042319 44 0.0 0.0 0.00 0.00 0.00 88 1019.2
20260504040318 43 0.0 0.0 0.00 0.00 0.00 91 1019.3
20260504034317 42 0.0 0.0 0.00 0.00 0.00 91 1019.2
20260504032316 42 0.0 0.0 0.00 0.00 0.00 92 1019.4
20260504030316 42 0.0 0.0 0.00 0.00 0.00 89 1019.1
20260504024315 43 0.0 0.0 0.00 0.00 0.00 85 1019.1
20260504022314 45 0.0 0.0 0.00 0.00 0.00 80 1018.9
20260504020313 46 0.0 0.0 0.00 0.00 0.00 76 1018.8
20260504012312 50 0.0 0.0 0.00 0.00 0.00 66 1018.7
20260504010311 50 0.0 0.0 0.00 0.00 0.00 64 1018.7
20260504004311 50 0.0 0.0 0.00 0.00 0.00 64 1018.8
20260504002310 51 0.0 0.0 0.00 0.00 0.00 63 1018.7
20260504000309 53 0.0 0.0 0.00 0.00 0.00 60 1018.7
20260503232308 54 0.0 0.0 0.00 0.00 0.00 57 1018.6
20260503230307 54 0.0 0.0 0.00 0.00 0.00 58 1018.6
20260503224306 54 0.0 0.0 0.00 0.00 0.00 59 1018.7
20260503222305 53 0.0 0.0 0.00 0.00 0.00 61 1018.8
20260503220305 52 0.0 0.0 0.00 0.00 0.00 64 1018.9
20260503214304 52 0.0 0.0 0.00 0.00 0.00 65 1018.8
20260503212305 52 0.0 0.0 0.00 0.00 0.00 64 1018.8
20260503210303 53 0.0 0.0 0.00 0.00 0.00 62 1018.9
20260503204302 53 0.0 0.0 0.00 0.00 0.00 61 1018.8
20260503202301 54 0.0 0.0 0.00 0.00 0.00 60 1018.7
20260503200300 55 0.0 0.0 0.00 0.00 0.00 56 1018.5
20260503194300 55 0.0 0.0 0.00 0.00 0.00 56 1018.6
20260503192259 55 0.0 0.0 0.00 0.00 0.00 58 1018.8
20260503190258 55 0.0 0.0 0.00 0.00 0.00 59 1018.7
20260503184257 56 0.0 0.0 0.00 0.00 0.00 60 1018.7
20260503182257 58 0.0 0.0 0.00 0.00 0.00 57 1018.5
20260503180256 60 0.0 0.0 0.00 0.00 0.00 56 1018.3
20260503172254 66 0.0 0.0 0.00 0.00 0.00 45 1017.7
20260503170254 70 0.0 0.0 0.00 0.00 0.00 37 1017.7